アトラス彗星

C/2025 N2 ( ATLAS )

English version
Home page
Updated on August 30, 2025

---------------------------------------------------------------------

・ プロフィール

発見日 2025年7月2日
発見光度 19.6等
発見者 Asteroid Terrestrial-Impact Last Alert System (ATLAS) search program

・ 写真集

・ 軌道要素

Epoch 2025 May 5.0 TT = JDT 2460800.5
T 2025 Jan. 20.44040 TT                                 Pike
q   9.0190590            (2000.0)            P               Q
z  +0.0008373      Peri.  232.15469     +0.16204405     +0.02599470
 +/-0.0071718      Node    94.52488     -0.24207605     +0.97015335
e   0.9924486      Incl.   81.69979     -0.95662998     -0.24109490
From 27 observations 2025 July 2-13, mean residual 0".3.

・ 光度変化

        

---------------------------------------------------------------------

軌道要素はM.P.E.C. 2025-O159に掲載されたものです。
光度グラフはComet for Windowsで作成したものです。

---------------------------------------------------------------------

Copyright(C) Seiichi Yoshida (comet@aerith.net). All rights reserved.